Satellite: RAX-2
Catalog number: 37853
Epoch time: 13332.76917063
Element set: 656
Inclination: 101.7009 deg
RA of node: 262.7529 deg
Eccentricity: 0.0228183
Arg of perigee: 275.0470 deg
Mean anomaly: 112.1906 deg
Mean motion: 14.85632552 rev/day
Decay rate: 7.477e-05 rev/day^2
Epoch rev: 11286
Checksum: 309
Satellite: AUBIESAT
Catalog number: 37854
Epoch time: 13332.77360361
Element set: 641
Inclination: 101.7051 deg
RA of node: 263.9998 deg
Eccentricity: 0.0227257
Arg of perigee: 273.1249 deg
Mean anomaly: 117.4394 deg
Mean motion: 14.86572266 rev/day
Decay rate: 8.177e-05 rev/day^2
Epoch rev: 11289
Checksum: 325
Satellite: HRBE
Catalog number: 37855
Epoch time: 13332.75248564
Element set: 650
Inclination: 101.7050 deg
RA of node: 263.5904 deg
Eccentricity: 0.0228763
Arg of perigee: 273.9216 deg
Mean anomaly: 116.5489 deg
Mean motion: 14.86107405 rev/day
Decay rate: 8.721e-05 rev/day^2
Epoch rev: 11287
Checksum: 308
Satellite: RS-39
Catalog number: 38051
Epoch time: 13332.79030093
Element set: 15
Inclination: 051.6333 deg
RA of node: 133.1762 deg
Eccentricity: 0.0010008
Arg of perigee: 146.3793 deg
Mean anomaly: 053.5913 deg
Mean motion: 15.38653055 rev/day
Decay rate: 2.1292e-04 rev/day^2
Epoch rev: 10306
Checksum: 265
Satellite: E-STAR
Catalog number: 38079
Epoch time: 13332.87510713
Element set: 637
Inclination: 069.4665 deg
RA of node: 142.2252 deg
Eccentricity: 0.0537354
Arg of perigee: 276.1852 deg
Mean anomaly: 150.7447 deg
Mean motion: 14.66413461 rev/day
Decay rate: 5.2128e-04 rev/day^2
Epoch rev: 9370
Checksum: 308
Satellite: GOLIAT
Catalog number: 38085
Epoch time: 13332.67372259
Element set: 579
Inclination: 069.4718 deg
RA of node: 146.4471 deg
Eccentricity: 0.0550457
Arg of perigee: 278.2786 deg
Mean anomaly: 075.6347 deg
Mean motion: 14.63416170 rev/day
Decay rate: 4.1075e-04 rev/day^2
Epoch rev: 9357
Checksum: 339
Satellite: HORYU-2
Catalog number: 38340
Epoch time: 13332.29062123
Element set: 682
Inclination: 098.2361 deg
RA of node: 281.5758 deg
Eccentricity: 0.0013789
Arg of perigee: 090.8128 deg
Mean anomaly: 269.4633 deg
Mean motion: 14.71449453 rev/day
Decay rate: 1.711e-05 rev/day^2
Epoch rev: 8224
Checksum: 304
Satellite: RS-40
Catalog number: 38736
Epoch time: 13332.44977942
Element set: 437
Inclination: 082.4805 deg
RA of node: 052.7066 deg
Eccentricity: 0.0020561
Arg of perigee: 330.2944 deg
Mean anomaly: 029.6999 deg
Mean motion: 12.42874037 rev/day
Decay rate: 1.0e-07 rev/day^2
Epoch rev: 6065
Checksum: 306
Satellite: PROITERES
Catalog number: 38756
Epoch time: 13332.69515141
Element set: 343
Inclination: 098.2423 deg
RA of node: 052.6707 deg
Eccentricity: 0.0011754
Arg of perigee: 307.4418 deg
Mean anomaly: 052.5710 deg
Mean motion: 14.74472800 rev/day
Decay rate: 1.040e-05 rev/day^2
Epoch rev: 6563
Checksum: 273
Satellite: RAIKO
Catalog number: 38852
Epoch time: 13218.07382584
Element set: 340
Inclination: 051.6160 deg
RA of node: 184.0336 deg
Eccentricity: 0.0004489
Arg of perigee: 261.9162 deg
Mean anomaly: 100.6538 deg
Mean motion: 16.48474690 rev/day
Decay rate: 2.4681979e-01 rev/day^2
Epoch rev: 4784
Checksum: 326
Satellite: BEESAT-3
Catalog number: 39134
Epoch time: 13332.38712185
Element set: 434
Inclination: 064.8770 deg
RA of node: 052.4216 deg
Eccentricity: 0.0006755
Arg of perigee: 328.8147 deg
Mean anomaly: 031.2558 deg
Mean motion: 15.01857863 rev/day
Decay rate: 6.176e-05 rev/day^2
Epoch rev: 3347
Checksum: 303
Satellite: BEESAT-2
Catalog number: 39136
Epoch time: 13332.33063871
Element set: 424
Inclination: 064.8743 deg
RA of node: 052.6710 deg
Eccentricity: 0.0006942
Arg of perigee: 329.6757 deg
Mean anomaly: 030.3735 deg
Mean motion: 15.01663272 rev/day
Decay rate: 5.595e-05 rev/day^2
Epoch rev: 3346
Checksum: 293
Satellite: ORS OBJ A
Catalog number: 39380
Epoch time: 13332.11055449
Element set: 22
Inclination: 040.5197 deg
RA of node: 203.2228 deg
Eccentricity: 0.0004593
Arg of perigee: 347.0066 deg
Mean anomaly: 013.0639 deg
Mean motion: 15.21248898 rev/day
Decay rate: 7.262e-05 rev/day^2
Epoch rev: 123
Checksum: 261
Satellite: ORS OBJ B
Catalog number: 39381
Epoch time: 13332.50605863
Element set: 11
Inclination: 040.5158 deg
RA of node: 200.9354 deg
Eccentricity: 0.0005183
Arg of perigee: 345.5002 deg
Mean anomaly: 014.5655 deg
Mean motion: 15.20905749 rev/day
Decay rate: 3.391e-05 rev/day^2
Epoch rev: 128
Checksum: 256
Satellite: ORS OBJ C
Catalog number: 39382
Epoch time: 13331.97937499
Element set: 14
Inclination: 040.5056 deg
RA of node: 203.9643 deg
Eccentricity: 0.0003548
Arg of perigee: 355.0887 deg
Mean anomaly: 004.9808 deg
Mean motion: 15.21404122 rev/day
Decay rate: 3.4065e-04 rev/day^2
Epoch rev: 120
Checksum: 280
Satellite: ORS OBJ D
Catalog number: 39383
Epoch time: 13332.83336197
Element set: 14
Inclination: 040.5087 deg
RA of node: 199.0153 deg
Eccentricity: 0.0003099
Arg of perigee: 014.3584 deg
Mean anomaly: 345.7268 deg
Mean motion: 15.21160203 rev/day
Decay rate: 1.0911e-04 rev/day^2
Epoch rev: 133
Checksum: 263
Satellite: TECHEDST3
Catalog number: 39415
Epoch time: 13332.35910603
Element set: 25
Inclination: 051.6485 deg
RA of node: 014.8294 deg
Eccentricity: 0.0002450
Arg of perigee: 347.8341 deg
Mean anomaly: 012.3100 deg
Mean motion: 15.53578130 rev/day
Decay rate: 8.2471e-04 rev/day^2
Epoch rev: 125
Checksum: 251
Satellite: DNEPR E
Catalog number: 39420
Epoch time: 13332.27024743
Element set: 14
Inclination: 097.7875 deg
RA of node: 044.4986 deg
Eccentricity: 0.0144167
Arg of perigee: 167.9608 deg
Mean anomaly: 192.5056 deg
Mean motion: 14.59288899 rev/day
Decay rate: 1.953e-05 rev/day^2
Epoch rev: 100
Checksum: 320
Satellite: DNEPR L
Catalog number: 39424
Epoch time: 13332.56194597
Element set: 7
Inclination: 097.7940 deg
RA of node: 044.8879 deg
Eccentricity: 0.0097448
Arg of perigee: 168.9397 deg
Mean anomaly: 191.3980 deg
Mean motion: 14.69584317 rev/day
Decay rate: 1.617e-05 rev/day^2
Epoch rev: 104
Checksum: 345
Satellite: TRITON-1
Catalog number: 39427
Epoch time: 13332.17685262
Element set: 6
Inclination: 097.7901 deg
RA of node: 044.4646 deg
Eccentricity: 0.0120281
Arg of perigee: 168.9847 deg
Mean anomaly: 191.3958 deg
Mean motion: 14.64566950 rev/day
Decay rate: 1.972e-05 rev/day^2
Epoch rev: 96
Checksum: 324
Satellite: DELFIN3XT
Catalog number: 39428
Epoch time: 13332.18907164
Element set: 6
Inclination: 097.7883 deg
RA of node: 044.4485 deg
Eccentricity: 0.0132267
Arg of perigee: 168.5521 deg
Mean anomaly: 191.8667 deg
Mean motion: 14.61972510 rev/day
Decay rate: 3.164e-05 rev/day^2
Epoch rev: 95
Checksum: 313
Satellite: GOMX-1
Catalog number: 39430
Epoch time: 13331.73605364
Element set: 6
Inclination: 097.7843 deg
RA of node: 043.9613 deg
Eccentricity: 0.0159017
Arg of perigee: 169.3087 deg
Mean anomaly: 191.1545 deg
Mean motion: 14.56026443 rev/day
Decay rate: 2.162e-05 rev/day^2
Epoch rev: 89
Checksum: 290
/EX